Location: Aranbee
(34.0885°N, 118.2342°W)
Time: 03:20:13
(UTC+00:00)

Courier 1B - Pass Details

Date: 28 November 2020
Orbit: 962 x 1209 km, 28.3° (Epoch: 25 January)

Event Time Altitude Azimuth Distance (km) Brightness Sun altitude
Exits shadow 11:21:20 21° 160° (SSE) 2,386 9.6 -40.3°
Drops below altitude 10° 11:24:15 10° 143° (SE) 3,126 10.5 -39.7°
Sets 11:27:30 0° 134° (SE) 4,099 11.3 -39.0°
